TimeEST,TemperatureF,Dew PointF,Humidity,Sea Level PressureIn,VisibilityMPH,Wind Direction,Wind SpeedMPH,Gust SpeedMPH,PrecipitationIn,Events,Conditions,WindDirDegrees,DateUTC
12:56 AM,28.0,25.2,89,30.32,7.0,Calm,Calm,-,N/A,,Clear,0,2013-11-11 05:56:00
1:56 AM,30.0,28.0,92,30.31,6.0,Calm,Calm,-,N/A,,Mostly Cloudy,0,2013-11-11 06:56:00
2:56 AM,32.9,31.1,93,30.31,6.0,South,4.6,-,N/A,,Overcast,190,2013-11-11 07:56:00
3:56 AM,32.9,30.0,89,30.31,7.0,South,4.6,-,N/A,,Overcast,190,2013-11-11 08:56:00
4:56 AM,34.9,32.0,89,30.29,7.0,South,6.9,-,N/A,,Overcast,190,2013-11-11 09:56:00
5:56 AM,36.0,32.0,86,30.30,7.0,SSW,4.6,-,N/A,,Overcast,200,2013-11-11 10:56:00
6:56 AM,36.0,32.0,86,30.30,7.0,SSW,6.9,-,N/A,,Overcast,200,2013-11-11 11:56:00
7:56 AM,36.9,32.0,83,30.28,6.0,SSW,10.4,-,N/A,,Haze,200,2013-11-11 12:56:00
8:56 AM,39.9,32.0,73,30.25,6.0,SSW,13.8,-,N/A,,Haze,210,2013-11-11 13:56:00
9:56 AM,41.9,32.0,68,30.24,7.0,SSW,12.7,-,N/A,,Overcast,210,2013-11-11 14:56:00
10:56 AM,43.9,31.1,61,30.22,7.0,SSW,16.1,-,N/A,,Overcast,210,2013-11-11 15:56:00
11:56 AM,47.8,31.1,52,30.19,7.0,SW,13.8,-,N/A,,Overcast,230,2013-11-11 16:56:00
12:56 PM,48.9,30.0,48,30.17,7.0,SSW,8.1,-,N/A,,Overcast,210,2013-11-11 17:56:00
1:56 PM,48.9,31.1,50,30.14,7.0,SW,10.4,-,N/A,,Overcast,220,2013-11-11 18:56:00
2:56 PM,48.9,32.9,54,30.12,7.0,SW,15.0,-,N/A,,Overcast,220,2013-11-11 19:56:00
3:56 PM,48.9,34.9,58,30.10,6.0,SW,15.0,-,0.00,,Haze,220,2013-11-11 20:56:00
4:56 PM,46.9,37.9,71,30.10,4.0,SW,11.5,-,0.00,Rain,Light Rain,230,2013-11-11 21:56:00
5:56 PM,45.9,41.9,86,30.11,7.0,WSW,10.4,-,0.00,Rain,Light Rain,240,2013-11-11 22:56:00
6:56 PM,45.9,41.9,86,30.12,7.0,WSW,11.5,-,0.00,,Overcast,240,2013-11-11 23:56:00
7:56 PM,46.9,41.0,80,30.13,7.0,West,9.2,-,N/A,,Overcast,280,2013-11-12 00:56:00
8:18 PM,44.6,39.2,81,30.13,7.0,North,18.4,-,N/A,,Overcast,360,2013-11-12 01:18:00
8:42 PM,42.8,39.2,87,30.13,4.0,NNW,12.7,-,0.00,Rain,Light Rain,340,2013-11-12 01:42:00
8:56 PM,41.0,39.9,96,30.17,3.0,NNW,11.5,-,0.00,Rain,Light Rain,340,2013-11-12 01:56:00
9:03 PM,41.0,39.2,93,30.15,2.5,North,15.0,-,0.00,Rain,Light Rain,360,2013-11-12 02:03:00
9:17 PM,39.2,39.2,100,30.16,3.0,NNW,10.4,-,0.01,Rain,Light Rain,340,2013-11-12 02:17:00
9:31 PM,39.2,37.4,93,30.17,1.8,NNW,20.7,26.5,0.01,Rain,Light Rain,340,2013-11-12 02:31:00
9:48 PM,37.4,37.4,100,30.18,2.0,North,17.3,-,0.01,Rain,Light Rain,350,2013-11-12 02:48:00
9:56 PM,36.9,36.0,97,30.21,2.0,North,17.3,23.0,0.02,Rain,Light Rain,360,2013-11-12 02:56:00
10:18 PM,35.6,35.6,100,30.20,3.0,North,13.8,-,0.02,,Overcast,360,2013-11-12 03:18:00
10:43 PM,33.8,33.8,100,30.21,2.0,North,11.5,-,0.03,Snow,Light Snow,350,2013-11-12 03:43:00
10:56 PM,32.9,32.9,100,30.24,1.5,NNW,9.2,-,0.04,Snow,Light Snow,330,2013-11-12 03:56:00
10:59 PM,33.8,33.8,100,30.22,1.2,NNW,8.1,-,0.00,Snow,Light Snow,330,2013-11-12 03:59:00
11:11 PM,33.8,32.0,93,30.22,1.0,North,10.4,-,0.01,Snow,Light Snow,350,2013-11-12 04:11:00
11:20 PM,33.8,32.0,93,30.23,1.5,North,13.8,-,0.01,Snow,Light Snow,350,2013-11-12 04:20:00
11:31 PM,33.8,32.0,93,30.24,1.8,NNW,16.1,-,0.02,Snow,Light Snow,340,2013-11-12 04:31:00
11:40 PM,33.8,32.0,93,30.24,1.8,North,13.8,-,0.02,Snow,Light Snow,350,2013-11-12 04:40:00
11:44 PM,33.8,32.0,93,30.25,1.8,North,13.8,20.7,0.02,Snow,Light Snow,350,2013-11-12 04:44:00
11:56 PM,32.0,32.0,100,30.27,0.8,North,12.7,-,0.02,Snow,Light Snow,360,2013-11-12 04:56:00